GW1734 Weather Reports


time (UTC)temp
C
wind
direction
speed
KPH
gust
KPH
rain 1hr
cm
rain 24hr
cm
rain mn
cm
humidity
%
barometer
mb
20260507030206 15 313 0.0 0.0 0.00 0.00 0.00 82 1020.5
20260507025703 15 300 0.0 0.0 0.00 0.00 0.00 82 1020.6
20260507025200 15 302 0.0 0.0 0.00 0.00 0.00 81 1020.4
20260507024658 15 325 0.0 0.0 0.00 0.00 0.00 80 1020.3
20260507024155 15 335 0.0 0.0 0.00 0.00 0.00 80 1020.3
20260507023650 16 293 0.0 0.0 0.00 0.00 0.00 78 1020.4
20260507023148 16 343 0.0 0.0 0.00 0.00 0.00 77 1020.3
20260507022645 16 341 0.0 0.0 0.00 0.00 0.00 78 1020.1
20260507022140 16 326 0.0 0.0 0.00 0.00 0.00 77 1020.3
20260507021637 16 298 0.0 0.0 0.00 0.00 0.00 78 1020.3
20260507021132 16 318 0.0 0.0 0.00 0.00 0.00 78 1020.1
20260507020631 17 339 0.0 0.0 0.00 0.00 0.00 76 1019.9
20260507020127 17 306 0.0 0.0 0.00 0.00 0.00 75 1020.4
20260507015625 17 302 0.0 0.0 0.00 0.00 0.00 74 1020.0
20260507015122 18 296 0.0 0.0 0.00 0.00 0.00 73 1020.1
20260507014619 18 310 0.0 0.0 0.00 0.00 0.00 75 1020.3
20260507014115 18 299 0.0 0.0 0.00 0.00 0.00 73 1020.1
20260507013612 18 359 0.0 0.0 0.00 0.00 0.00 73 1020.3
20260507013109 18 332 0.0 0.0 0.00 0.00 0.00 74 1020.2
20260507012606 18 319 0.0 0.0 0.00 0.00 0.00 76 1020.1
20260507012101 18 350 0.0 0.0 0.00 0.00 0.00 74 1020.3
20260507011600 18 345 0.0 0.0 0.00 0.00 0.00 73 1020.1
20260507011055 18 341 0.0 0.0 0.00 0.00 0.00 73 1020.2
20260507010550 18 306 0.0 0.0 0.00 0.00 0.00 74 1020.0
20260507010047 19 345 0.0 0.0 0.00 0.00 0.00 73 1020.1
20260507005544 19 343 0.0 0.0 0.00 0.00 0.00 72 1020.2
20260507005040 18 332 0.0 0.0 0.00 0.00 0.00 74 1020.2
20260507004538 19 350 0.0 0.0 0.00 0.00 0.00 74 1020.1
20260507004035 19 37 0.0 3.2 0.00 0.00 0.00 75 1020.2
20260507003530 20 31 0.0 0.0 0.00 0.00 0.00 73 1020.0
20260507003026 19 319 0.0 0.0 0.00 0.00 0.00 76 1020.1
20260507002522 20 19 0.0 0.0 0.00 0.00 0.00 73 1020.1
20260507002019 20 1 0.0 0.0 0.00 0.00 0.00 73 1019.9
20260507001515 20 328 0.0 0.0 0.00 0.00 0.00 74 1019.9
20260507001013 20 332 0.0 0.0 0.00 0.00 0.00 74 1020.0
20260507000509 20 295 0.0 0.0 0.00 0.00 0.00 71 1020.0
20260507000005 21 321 0.0 0.0 0.00 0.00 0.00 70 1020.0
20260506235502 20 302 0.0 0.0 0.00 0.00 0.00 72 1019.8
20260506234958 20 33 0.0 0.0 0.00 0.00 0.00 75 1020.1
20260506234455 20 86 0.0 0.0 0.00 0.00 0.00 73 1019.9
20260506233952 19 0 0.0 0.0 0.00 0.00 0.00 73 1020.1
20260506233449 19 0 0.0 0.0 0.00 0.00 0.00 73 1019.9
20260506232945 20 294 0.0 0.0 0.00 0.00 0.00 74 1020.0
20260506232442 20 48 0.0 0.0 0.00 0.00 0.00 76 1019.9
20260506231937 19 331 0.0 0.0 0.00 0.00 0.00 74 1019.9
20260506231436 19 339 0.0 0.0 0.00 0.00 0.00 75 1020.2
20260506230932 19 14 0.0 0.0 0.00 0.00 0.00 74 1020.3
20260506230428 19 31 0.0 0.0 0.00 0.00 0.00 74 1020.0
20260506225925 19 32 0.0 0.0 0.00 0.00 0.00 76 1020.4
20260506225423 19 318 0.0 0.0 0.00 0.00 0.00 76 1019.9
20260506224920 19 335 0.0 0.0 0.00 0.00 0.00 75 1020.2
20260506224417 19 38 0.0 0.0 0.00 0.00 0.00 74 1020.2
20260506223913 18 316 0.0 0.0 0.00 0.00 0.00 77 1020.1
20260506223408 19 32 0.0 0.0 0.00 0.00 0.00 75 1020.2
20260506222906 19 340 0.0 0.0 0.00 0.00 0.00 77 1020.4
20260506222402 20 39 0.0 0.0 0.00 0.00 0.00 79 1020.4
20260506221900 20 5 0.0 0.0 0.00 0.00 0.00 79 1020.3
20260506221356 20 43 0.0 0.0 0.00 0.00 0.00 77 1020.3
20260506220854 20 78 0.0 0.0 0.00 0.00 0.00 77 1020.2
20260506220349 19 298 0.0 0.0 0.00 0.00 0.00 77 1020.2
20260506215846 20 251 0.0 0.0 0.00 0.00 0.00 77 1020.2
20260506215342 20 207 0.0 0.0 0.00 0.00 0.00 77 1020.1
20260506214838 20 265 0.0 0.0 0.00 0.00 0.00 78 1020.4
20260506214335 20 98 0.0 0.0 0.00 0.00 0.00 77 1020.3
20260506213833 20 273 0.0 0.0 0.00 0.00 0.00 78 1020.3
20260506213330 20 70 0.0 0.0 0.00 0.00 0.00 79 1020.2
20260506212828 20 104 0.0 0.0 0.00 0.00 0.00 78 1020.4
20260506212323 19 230 0.0 0.0 0.00 0.00 0.00 77 1020.3
20260506211818 20 88 0.0 0.0 0.00 0.00 0.00 78 1020.3
20260506211315 19 242 0.0 0.0 0.00 0.00 0.00 78 1020.3
20260506210813 20 71 1.6 3.2 0.00 0.00 0.00 79 1020.4
20260506210309 20 87 1.6 3.2 0.00 0.00 0.00 76 1020.3
20260506205806 20 354 0.0 0.0 0.00 0.00 0.00 76 1020.2
20260506205305 20 83 0.0 0.0 0.00 0.00 0.00 76 1020.5
20260506204758 20 84 0.0 0.0 0.00 0.00 0.00 78 1020.5
20260506204257 20 68 0.0 0.0 0.00 0.00 0.00 79 1020.5
20260506203754 19 94 4.8 9.7 0.00 0.00 0.00 79 1020.5
20260506203251 19 65 0.0 0.0 0.00 0.00 0.00 79 1020.7
20260506202748 19 61 0.0 1.6 0.00 0.00 0.00 80 1020.5
20260506202245 18 92 0.0 0.0 0.00 0.00 0.00 81 1020.5
20260506201741 18 28 0.0 0.0 0.00 0.00 0.00 82 1020.4
20260506201238 18 87 0.0 0.0 0.00 0.00 0.00 81 1020.7
20260506200735 18 65 0.0 0.0 0.00 0.00 0.00 80 1020.7
20260506200232 18 84 0.0 0.0 0.00 0.00 0.00 80 1020.5
20260506195728 19 191 0.0 0.0 0.00 0.00 0.00 79 1020.6
20260506195225 19 91 0.0 0.0 0.00 0.00 0.00 81 1020.5
20260506194722 18 100 1.6 3.2 0.00 0.00 0.00 80 1020.4
20260506194218 18 92 0.0 0.0 0.00 0.00 0.00 82 1020.5
20260506193716 18 134 0.0 0.0 0.00 0.00 0.00 82 1020.6
20260506193213 18 52 0.0 0.0 0.00 0.00 0.00 80 1020.9
20260506192709 17 108 0.0 0.0 0.00 0.00 0.00 82 1020.8
20260506192206 18 71 0.0 1.6 0.00 0.00 0.00 84 1020.8
20260506191703 18 170 0.0 0.0 0.00 0.00 0.00 83 1020.7
20260506191159 17 88 0.0 0.0 0.00 0.00 0.00 83 1020.8
20260506190657 17 91 0.0 0.0 0.00 0.00 0.00 82 1021.0
20260506190153 17 195 0.0 0.0 0.00 0.00 0.00 83 1020.8
20260506185650 17 76 0.0 0.0 0.00 0.00 0.00 85 1020.8
20260506185146 16 214 0.0 0.0 0.00 0.00 0.00 86 1020.7
20260506184644 16 63 0.0 0.0 0.00 0.00 0.00 86 1020.8
20260506184141 16 180 0.0 0.0 0.00 0.00 0.00 85 1020.9
20260506183638 17 53 0.0 0.0 0.00 0.00 0.00 85 1020.9
20260506183134 17 244 0.0 0.0 0.00 0.00 0.00 85 1020.8
20260506182632 16 69 0.0 0.0 0.00 0.00 0.00 85 1020.6
20260506182128 17 92 0.0 0.0 0.00 0.00 0.00 85 1020.7
20260506181626 16 81 0.0 0.0 0.00 0.00 0.00 86 1020.8
20260506181123 16 16 0.0 0.0 0.00 0.00 0.00 86 1020.9
20260506180620 16 101 3.2 4.8 0.00 0.00 0.00 86 1020.6
20260506180116 16 93 0.0 0.0 0.00 0.00 0.00 86 1020.6
20260506175613 17 69 0.0 0.0 0.00 0.00 0.00 86 1020.6
20260506175108 17 66 0.0 1.6 0.00 0.00 0.00 86 1020.5
20260506174608 17 96 0.0 0.0 0.00 0.00 0.00 85 1020.5
20260506174103 16 90 0.0 0.0 0.00 0.00 0.00 85 1020.6
20260506173602 16 80 0.0 1.6 0.00 0.00 0.00 87 1020.5
20260506173058 16 87 0.0 0.0 0.00 0.00 0.00 90 1020.5
20260506172556 15 89 0.0 0.0 0.00 0.00 0.00 88 1020.6
20260506172051 15 100 0.0 0.0 0.00 0.00 0.00 89 1020.7
20260506171549 15 59 0.0 0.0 0.00 0.00 0.00 88 1020.7
20260506171047 15 205 0.0 0.0 0.00 0.00 0.00 88 1020.8
20260506170544 15 68 0.0 0.0 0.00 0.00 0.00 88 1020.8
20260506170041 15 82 0.0 0.0 0.00 0.00 0.00 89 1020.6
20260506165540 15 104 0.0 0.0 0.00 0.00 0.00 88 1020.9
20260506165036 15 90 0.0 0.0 0.00 0.00 0.00 89 1020.7
20260506164533 15 81 0.0 0.0 0.00 0.00 0.00 87 1020.7
20260506164030 15 95 0.0 0.0 0.00 0.00 0.00 89 1020.6
20260506163526 15 63 0.0 0.0 0.00 0.00 0.00 87 1020.6
20260506163021 15 108 0.0 0.0 0.00 0.00 0.00 88 1020.6
20260506162518 15 100 0.0 0.0 0.00 0.00 0.00 88 1020.6
20260506162015 15 282 0.0 0.0 0.00 0.00 0.00 86 1020.6
20260506161513 15 297 0.0 0.0 0.00 0.00 0.00 87 1020.9
20260506161009 15 297 0.0 0.0 0.00 0.00 0.00 87 1020.8
20260506160507 15 310 0.0 0.0 0.00 0.00 0.00 88 1020.7
20260506160004 14 334 0.0 0.0 0.00 0.00 0.00 88 1020.7
20260506155502 13 344 0.0 0.0 0.00 0.00 0.00 89 1020.7
20260506153634 14 336 0.0 0.0 0.00 0.00 0.00 88 1020.4
20260506153131 14 256 0.0 0.0 0.00 0.00 0.00 88 1020.4
20260506152628 14 280 0.0 0.0 0.00 0.00 0.00 88 1020.3
20260506152126 14 235 0.0 0.0 0.00 0.00 0.00 88 1020.3
20260506151624 13 311 0.0 0.0 0.00 0.00 0.00 89 1020.0
20260506151121 13 331 0.0 0.0 0.00 0.00 0.00 89 1020.3
20260506150618 13 310 0.0 0.0 0.00 0.00 0.00 90 1020.3
20260506150115 13 56 0.0 0.0 0.00 0.00 0.00 91 1020.4
20260506145612 13 317 0.0 0.0 0.00 0.00 0.00 91 1020.3
20260506145108 13 328 0.0 0.0 0.00 0.00 0.00 92 1020.4
20260506144605 13 347 0.0 0.0 0.00 0.00 0.00 92 1020.6
20260506144102 12 304 0.0 0.0 0.00 0.00 0.00 93 1020.9
20260506143600 12 345 0.0 0.0 0.00 0.00 0.00 93 1020.9
20260506143058 12 347 0.0 0.0 0.00 0.00 0.00 94 1020.9
20260506142556 12 323 0.0 0.0 0.00 0.00 0.00 94 1020.8
20260506142054 12 321 0.0 0.0 0.00 0.00 0.00 95 1020.8
20260506141551 12 320 0.0 0.0 0.00 0.00 0.00 96 1020.5
20260506141049 12 337 0.0 0.0 0.00 0.00 0.00 98 1020.8
20260506140547 12 353 0.0 0.0 0.00 0.00 0.00 99 1020.5
20260506140044 11 297 0.0 0.0 0.00 0.00 0.00 99 1020.6
20260506135541 11 308 0.0 0.0 0.00 0.00 0.00 99 1020.4
20260506135037 11 287 0.0 0.0 0.00 0.00 0.00 99 1020.4
20260506134533 11 285 0.0 0.0 0.00 0.00 0.00 99 1020.2
20260506134029 11 269 0.0 0.0 0.00 0.00 0.00 99 1020.0
20260506133527 11 285 0.0 0.0 0.00 0.00 0.00 99 1020.0
20260506133023 11 270 0.0 0.0 0.00 0.00 0.00 99 1019.9
20260506132521 11 243 0.0 0.0 0.00 0.00 0.00 99 1020.1
20260506132018 11 292 0.0 0.0 0.00 0.00 0.00 99 1020.2
20260506131515 11 292 0.0 0.0 0.00 0.00 0.00 99 1019.7
20260506131011 11 293 0.0 0.0 0.00 0.00 0.00 99 1020.0
20260506130508 11 289 0.0 0.0 0.00 0.00 0.00 99 1019.8
20260506130006 11 281 0.0 0.0 0.00 0.00 0.00 99 1019.9
20260506125504 11 281 0.0 0.0 0.00 0.00 0.00 99 1019.8
20260506125001 10 281 0.0 0.0 0.00 0.00 0.00 99 1019.6
20260506124459 10 286 0.0 0.0 0.00 0.00 0.00 99 1019.7
20260506123957 10 287 0.0 0.0 0.00 0.00 0.00 99 1019.5
20260506123454 10 298 0.0 0.0 0.00 0.00 0.00 98 1019.5
20260506122952 10 299 0.0 0.0 0.00 0.00 0.00 98 1019.6
20260506122448 10 299 0.0 0.0 0.00 0.00 0.00 98 1019.5
20260506121947 11 306 0.0 0.0 0.00 0.00 0.00 97 1019.3
20260506121444 11 290 0.0 0.0 0.00 0.00 0.00 97 1019.3
20260506120940 11 291 0.0 0.0 0.00 0.00 0.00 95 1019.3
20260506120438 12 273 0.0 0.0 0.00 0.00 0.00 95 1018.9
20260506115935 12 273 0.0 0.0 0.00 0.00 0.00 94 1019.3
20260506115433 12 273 0.0 0.0 0.00 0.00 0.00 94 1019.4
20260506114931 12 273 0.0 0.0 0.00 0.00 0.00 94 1019.0
20260506114428 12 289 0.0 0.0 0.00 0.00 0.00 94 1019.3
20260506113927 12 289 0.0 0.0 0.00 0.00 0.00 94 1019.3
20260506113424 12 276 0.0 0.0 0.00 0.00 0.00 94 1019.1
20260506112921 12 302 0.0 0.0 0.00 0.00 0.00 94 1019.4
20260506112419 13 291 0.0 0.0 0.00 0.00 0.00 94 1019.2
20260506111916 13 294 0.0 0.0 0.00 0.00 0.00 93 1019.0
20260506111414 13 335 0.0 0.0 0.00 0.00 0.00 93 1019.0
20260506110910 13 315 0.0 0.0 0.00 0.00 0.00 93 1019.0
20260506110408 13 319 0.0 0.0 0.00 0.00 0.00 93 1018.9
20260506105905 13 2 0.0 0.0 0.00 0.00 0.00 93 1019.1
20260506105401 13 338 0.0 0.0 0.00 0.00 0.00 93 1019.0
20260506104858 13 321 0.0 0.0 0.00 0.00 0.00 93 1019.0
20260506104356 13 340 0.0 0.0 0.00 0.00 0.00 94 1019.0
20260506103854 13 330 0.0 0.0 0.00 0.00 0.00 94 1018.7
20260506103351 13 356 0.0 0.0 0.00 0.00 0.00 94 1018.6
20260506102848 13 8 0.0 1.6 0.00 0.00 0.00 94 1018.6
20260506102346 13 300 0.0 0.0 0.00 0.00 0.00 94 1018.4
20260506101843 13 319 0.0 0.0 0.00 0.00 0.00 94 1018.6
20260506101339 13 357 0.0 0.0 0.00 0.00 0.00 95 1018.4
20260506100837 13 316 0.0 0.0 0.00 0.00 0.00 95 1018.4
20260506100335 13 313 0.0 0.0 0.00 0.00 0.00 95 1018.4
20260506095833 13 280 0.0 0.0 0.00 0.00 0.00 95 1018.3
20260506095330 13 326 0.0 0.0 0.00 0.00 0.00 95 1018.2
20260506094826 13 300 0.0 0.0 0.00 0.00 0.00 96 1018.2
20260506094326 13 303 0.0 0.0 0.00 0.00 0.00 96 1018.1
20260506093823 13 291 0.0 0.0 0.00 0.00 0.00 96 1018.2
20260506093320 13 296 0.0 0.0 0.00 0.00 0.00 96 1018.2
20260506092818 13 302 0.0 0.0 0.00 0.00 0.00 96 1018.2
20260506092315 13 303 0.0 0.0 0.00 0.00 0.00 96 1018.0
20260506091812 13 305 0.0 0.0 0.00 0.00 0.00 96 1018.0
20260506091310 13 293 0.0 0.0 0.00 0.00 0.00 96 1017.9
20260506090808 13 293 0.0 0.0 0.00 0.00 0.00 96 1018.1
20260506090304 13 285 0.0 0.0 0.00 0.00 0.00 96 1018.4
20260506085801 13 300 0.0 0.0 0.00 0.00 0.00 96 1017.9
20260506085257 13 301 0.0 0.0 0.00 0.00 0.00 96 1017.8
20260506084754 13 304 0.0 0.0 0.00 0.00 0.00 96 1018.0
20260506084250 13 295 0.0 0.0 0.00 0.00 0.00 96 1018.2
20260506083747 13 306 0.0 0.0 0.00 0.00 0.00 97 1017.9
20260506083245 13 311 0.0 0.0 0.00 0.00 0.00 97 1018.2
20260506082742 13 305 0.0 0.0 0.00 0.00 0.00 97 1018.2
20260506082237 12 315 0.0 0.0 0.00 0.00 0.00 98 1017.9
20260506081736 12 307 0.0 0.0 0.00 0.00 0.00 99 1017.9
20260506081233 12 304 0.0 0.0 0.00 0.00 0.00 99 1018.0
20260506080731 12 304 0.0 0.0 0.00 0.00 0.00 99 1018.0
20260506080227 13 291 0.0 0.0 0.00 0.00 0.00 99 1017.8
20260506073211 12 296 0.0 0.0 0.00 0.00 0.00 99 1017.6
20260506072708 12 298 0.0 0.0 0.00 0.00 0.00 99 1017.7
20260506072206 12 300 0.0 0.0 0.00 0.00 0.00 99 1017.4
20260506071703 12 300 0.0 0.0 0.00 0.00 0.00 99 1017.7
20260506071201 12 300 0.0 0.0 0.00 0.00 0.00 99 1017.6
20260506070657 12 300 0.0 0.0 0.00 0.00 0.00 99 1017.4
20260506070154 12 301 0.0 0.0 0.00 0.00 0.00 99 1017.5
20260506062131 13 300 0.0 0.0 0.00 0.03 0.03 99 1017.2
20260506061627 13 300 0.0 0.0 0.00 0.03 0.03 99 1017.2
20260506061125 13 300 0.0 0.0 0.00 0.03 0.03 99 1017.1
20260506060623 13 300 0.0 0.0 0.00 0.03 0.03 99 1017.4
20260506060120 13 300 0.0 0.0 0.00 0.03 0.03 99 1017.3
20260506051052 13 300 0.0 0.0 0.00 0.03 0.03 98 1017.0
20260506050550 13 300 0.0 0.0 0.00 0.03 0.03 98 1016.9
20260506045040 13 292 0.0 0.0 0.00 0.03 0.03 97 1016.8
20260506044538 13 292 0.0 0.0 0.00 0.03 0.03 97 1016.8
20260506044035 13 278 0.0 0.0 0.00 0.03 0.03 97 1016.8
20260506043532 13 275 0.0 0.0 0.00 0.03 0.03 97 1016.8
20260506043030 13 298 0.0 0.0 0.00 0.03 0.03 97 1016.7
20260506042529 13 298 0.0 0.0 0.00 0.03 0.03 97 1016.8
20260506042027 13 298 0.0 0.0 0.00 0.03 0.03 97 1016.7
20260506041525 13 298 0.0 0.0 0.00 0.03 0.03 97 1016.6
20260506041021 13 298 0.0 0.0 0.00 0.03 0.03 97 1016.7
20260506040519 13 313 0.0 0.0 0.00 0.03 0.03 96 1016.7
20260506040015 13 322 0.0 0.0 0.00 0.03 0.03 96 1016.3
20260506035512 13 290 0.0 0.0 0.00 0.03 0.03 95 1016.2
20260506035009 13 291 0.0 0.0 0.00 0.03 0.03 94 1016.3
20260506034507 13 259 0.0 0.0 0.00 0.03 0.03 92 1016.1
20260506034003 13 259 0.0 0.0 0.00 0.03 0.03 91 1015.9
20260506033501 14 259 0.0 0.0 0.00 0.03 0.03 91 1016.0
20260506032957 15 258 0.0 0.0 0.00 0.03 0.03 90 1015.9
20260506032455 15 258 0.0 0.0 0.00 0.03 0.03 89 1015.7
20260506031951 15 152 0.0 0.0 0.00 0.03 0.03 89 1015.6
20260506031449 15 79 0.0 0.0 0.00 0.03 0.03 88 1015.7
20260506030946 16 66 0.0 0.0 0.00 0.03 0.03 86 1015.6
20260506030444 16 77 0.0 0.0 0.00 0.03 0.03 85 1015.7